星链-31022 (STARLINK-31022 )

导读

STARLINK-31022是美国星链(Starlink)项目的一颗卫星,于2023年12月23日发射入轨,是SpaceX星链互联网星座的组成部分。星链星座旨在为全球提供低延迟、高速率的卫星互联网服务,该卫星承担组网任务,为偏远地区、移动场景等提供网络连接补充,提升全球网络覆盖能力。

Basic Information
目录编号:
58633
目录名称:
STARLINK-31022
国际标识:
2023-203R
轨道中心:
EARTH
卫星名称:
星链-31022
卫星全名:
星链-31022 (STARLINK-31022 )
卫星状态:
在轨 (已飞行986 天)
发射日期:
2023-12-23 UTC
国别 :
美国 (US)
星等 :
--
Orbit Information
数据来源 国际轨道数据
星历时间: 2026-09-04T07:35:08+0800
13小时前
查看轨道信息
半长轴: 6861.18km
偏心率: 0.0001343
轨道倾角: 43.003°
近地点辐角 270.254°
升交点赤经 144.084°
平近点角 89.816°
近地点: 482.121km
远地点: 483.965km
周期: 94.267分钟
每日圈数: 15.275822
Detailed Information
固有亮度:
5
最大亮度:
0.3
卫星平台:
Starlink v2.0 mini
覆盖范围:
全球
运营商:
太空探索技术公司
运营商所在国:
美国
制造商(研发单位):
太空探索技术公司
制造商所在国:
美国
使用方式:
暂无
Satellite Introduction
星链(Starlink)计划是由太空探索技术公司(SpaceX)提出的一个巨型低轨卫星互联网星座项目,计划在2019年至2024年间在太空搭建由约1.2万颗卫星组成的“星链”网络,其中1584颗将部署在地球上空550千米处的近地轨道,并从2020年开始工作。该卫星仍在工作。
2D Orbit Map
3D Orbit Map
Orbit Altitude Analysis Chart
Orbit Inclination Analysis Chart
Orbit Comprehensive Analysis Chart
View Comprehensive Chart
Conjunction Data List
Event ID Objects TCA Miss Dist (km) Collision Risk Probability Collision Risk Index (CRI) Action
CDM_260827-184405-863306-710422
2026-08-27T
18:44:52+0000
0.951 km
远距离
2.065254E-5 中风险 0.61
CDM_260903-153505-322405-863321
2026-09-03T
15:35:05+0000
1.493 km
极远距离
6.582607E-6 低风险 0.51
CDM_260905-211205-863306-256921
2026-09-05T
21:12:51+0000
1.414 km
极远距离
6.126356E-6 低风险 0.51
CDM_260906-072405-863306-256921
2026-09-06T
07:24:50+0000
1.537 km
极远距离
4.66796E-6 低风险 0.48
CDM_260903-205405-705105-863321
2026-09-03T
20:54:09+0000
1.332 km
极远距离
3.790719E-6 低风险 0.47
CDM_260905-193805-863306-256921
2026-09-05T
19:38:42+0000
2.343 km
极远距离
1.544195E-6 低风险 0.39
CDM_260904-035705-705105-863321
2026-09-04T
03:57:52+0000
1.857 km
极远距离
1.427669E-6 低风险 0.38
CDM_260906-055005-863306-256921
2026-09-06T
05:50:41+0000
2.886 km
极远距离
1.105258E-6 低风险 0.36
CDM_260903-192005-705105-863321
2026-09-03T
19:20:00+0000
2.925 km
极远距离
6.272692E-7 极低风险 0.31
CDM_260904-053205-705105-863321
2026-09-04T
05:32:01+0000
2.937 km
极远距离
6.239804E-7 极低风险 0.31